Location: Unspecified
(41.1637°N, 24.2901°E)
Time: 10:49:16
(UTC+02:00)

ISS - Pass Details

Date: 13 May 2026
Orbit: 414 x 424 km, 51.6° (Epoch: 12 May)

Event Time Altitude Azimuth Distance (km) Brightness Sun altitude
Rises 00:10:58 0° 310° (NW) 2,356 0.6 -30.5°
Reaches altitude 10° 00:13:23 10° 326° (NNW) 1,493 -0.3 -30.5°
Enters shadow 00:13:26 10° 327° (NNW) 1,475 -0.3 -30.5°
